Time,TemperatureF,DewpointF,PressureIn,WindDirection,WindDirectionDegrees,WindSpeedMPH,WindSpeedGustMPH,Humidity,HourlyPrecipIn,Conditions,Clouds,dailyrainin,SoftwareType,DateUTC
2013-08-14 00:01:00,54.1,35.9,29.85,NNW,345,10.0,11.0,50,0.00,,CLR,0.54,VWS V14.01,2013-08-14 04:01:00,
2013-08-14 00:02:00,54.1,35.9,29.85,NNE,13,5.0,11.0,50,0.00,,CLR,0.54,VWS V14.01,2013-08-14 04:02:00,
2013-08-14 00:07:00,53.9,34.7,29.85,NNW,333,4.0,11.0,48,0.00,,CLR,0.54,VWS V14.01,2013-08-14 04:07:00,
2013-08-14 00:12:00,53.7,33.4,29.86,NNW,346,6.0,10.0,46,0.00,,CLR,0.00,VWS V14.01,2013-08-14 04:12:00,
2013-08-14 00:17:00,53.5,32.7,29.86,NW,323,5.0,10.0,45,0.00,,CLR,0.00,VWS V14.01,2013-08-14 04:17:00,
2013-08-14 00:22:00,53.3,31.4,29.86,NW,314,1.0,10.0,43,0.00,,CLR,0.00,VWS V14.01,2013-08-14 04:22:00,
2013-08-14 00:27:00,53.1,30.0,29.85,NW,310,2.0,10.0,41,0.00,,CLR,0.00,VWS V14.01,2013-08-14 04:27:00,
2013-08-14 00:32:00,52.8,28.5,29.85,NNW,337,0.0,10.0,39,0.00,,CLR,0.00,VWS V14.01,2013-08-14 04:32:00,
2013-08-14 00:37:00,52.6,27.7,29.85,North,11,9.0,10.0,38,0.00,,CLR,0.00,VWS V14.01,2013-08-14 04:37:00,
2013-08-14 00:42:00,52.4,26.9,29.85,NNW,330,4.0,9.0,37,0.00,,CLR,0.00,VWS V14.01,2013-08-14 04:42:00,
2013-08-14 00:47:00,52.3,26.2,29.85,NW,314,4.0,9.0,36,0.00,,CLR,0.00,VWS V14.01,2013-08-14 04:47:00,
2013-08-14 00:52:00,52.2,25.4,29.85,NNW,332,2.0,7.0,35,0.00,,CLR,0.00,VWS V14.01,2013-08-14 04:52:00,
2013-08-14 00:57:00,51.9,24.4,29.86,NW,314,1.0,7.0,34,0.00,,CLR,0.00,VWS V14.01,2013-08-14 04:57:00,
2013-08-14 01:02:00,51.7,24.3,29.86,NW,325,2.0,6.0,34,0.00,,CLR,0.00,VWS V14.01,2013-08-14 05:02:00,
2013-08-14 01:07:00,51.5,22.6,29.86,North,355,6.0,6.0,32,0.00,,CLR,0.00,VWS V14.01,2013-08-14 05:07:00,
2013-08-14 01:12:00,51.5,21.9,29.86,NW,317,6.0,13.0,31,0.00,,CLR,0.00,VWS V14.01,2013-08-14 05:12:00,
2013-08-14 01:17:00,51.4,21.0,29.86,NW,318,0.0,13.0,30,0.00,,CLR,0.00,VWS V14.01,2013-08-14 05:17:00,
2013-08-14 01:22:00,51.2,20.9,29.87,NW,318,0.0,3.0,30,0.00,,CLR,0.00,VWS V14.01,2013-08-14 05:22:00,
2013-08-14 01:27:00,50.9,19.0,29.87,NW,323,6.0,6.0,28,0.00,,CLR,0.00,VWS V14.01,2013-08-14 05:27:00,
2013-08-14 01:32:00,50.9,17.2,29.87,NNW,333,1.0,5.0,26,0.00,,CLR,0.00,VWS V14.01,2013-08-14 05:32:00,
2013-08-14 01:37:00,50.7,16.2,29.87,NNW,331,1.0,5.0,25,0.00,,CLR,0.00,VWS V14.01,2013-08-14 05:37:00,
2013-08-14 01:42:00,50.6,15.2,29.87,WNW,299,4.0,5.0,24,0.00,,CLR,0.00,VWS V14.01,2013-08-14 05:42:00,
2013-08-14 01:47:00,50.5,14.1,29.87,NW,319,0.0,6.0,23,0.00,,CLR,0.00,VWS V14.01,2013-08-14 05:47:00,
2013-08-14 01:52:00,50.3,13.9,29.87,WNW,296,5.0,5.0,23,0.00,,CLR,0.00,VWS V14.01,2013-08-14 05:52:00,
2013-08-14 01:57:00,50.1,11.7,29.87,West,280,4.0,7.0,21,0.00,,CLR,0.00,VWS V14.01,2013-08-14 05:57:00,
2013-08-14 02:02:00,50.1,10.6,29.87,NW,312,3.0,5.0,20,0.00,,CLR,0.00,VWS V14.01,2013-08-14 06:02:00,
2013-08-14 02:07:00,50.0,9.4,29.88,NW,304,2.0,5.0,19,0.00,,CLR,0.00,VWS V14.01,2013-08-14 06:07:00,
2013-08-14 02:12:00,49.9,8.1,29.88,NNW,335,6.0,6.0,18,0.00,,CLR,0.00,VWS V14.01,2013-08-14 06:12:00,
2013-08-14 02:17:00,49.8,6.8,29.88,NW,318,2.0,9.0,17,0.00,,CLR,0.00,VWS V14.01,2013-08-14 06:17:00,
2013-08-14 02:22:00,49.8,5.4,29.87,WNW,300,3.0,7.0,16,0.00,,CLR,0.00,VWS V14.01,2013-08-14 06:22:00,
2013-08-14 02:28:00,49.9,5.5,29.87,NW,326,6.0,7.0,16,0.00,,CLR,0.00,VWS V14.01,2013-08-14 06:28:00,
2013-08-14 02:33:00,49.7,3.9,29.87,NNW,330,2.0,9.0,15,0.00,,CLR,0.00,VWS V14.01,2013-08-14 06:33:00,
2013-08-14 02:38:00,49.6,3.9,29.87,NW,306,3.0,9.0,15,0.00,,CLR,0.00,VWS V14.01,2013-08-14 06:38:00,
2013-08-14 02:43:00,49.6,2.4,29.87,NW,308,4.0,5.0,14,0.00,,CLR,0.00,VWS V14.01,2013-08-14 06:43:00,
2013-08-14 02:48:00,49.5,2.3,29.87,WNW,296,3.0,5.0,14,0.00,,CLR,0.00,VWS V14.01,2013-08-14 06:48:00,
2013-08-14 02:53:00,49.4,2.2,29.87,WNW,296,0.0,4.0,14,0.00,,CLR,0.00,VWS V14.01,2013-08-14 06:53:00,
2013-08-14 02:58:00,49.3,2.1,29.87,WNW,296,2.0,5.0,14,0.00,,CLR,0.00,VWS V14.01,2013-08-14 06:58:00,
2013-08-14 03:03:00,49.2,0.5,29.87,WNW,302,2.0,6.0,13,0.00,,CLR,0.00,VWS V14.01,2013-08-14 07:03:00,
2013-08-14 03:08:00,49.1,0.4,29.86,WNW,300,3.0,6.0,13,0.00,,CLR,0.00,VWS V14.01,2013-08-14 07:08:00,
2013-08-14 03:13:00,49.2,-1.2,29.86,WNW,299,0.0,5.0,12,0.00,,CLR,0.00,VWS V14.01,2013-08-14 07:13:00,
2013-08-14 03:18:00,49.2,-1.2,29.86,WNW,300,0.0,5.0,12,0.00,,CLR,0.00,VWS V14.01,2013-08-14 07:18:00,
2013-08-14 03:23:00,49.1,-1.3,29.86,WNW,300,0.0,2.0,12,0.00,,CLR,0.00,VWS V14.01,2013-08-14 07:23:00,
2013-08-14 03:28:00,49.0,-1.4,29.86,WNW,300,1.0,4.0,12,0.00,,CLR,0.00,VWS V14.01,2013-08-14 07:28:00,
2013-08-14 03:33:00,48.9,-3.3,29.86,WNW,299,5.0,5.0,11,0.00,,CLR,0.00,VWS V14.01,2013-08-14 07:33:00,
2013-08-14 03:38:00,48.9,-3.3,29.86,WNW,303,3.0,7.0,11,0.00,,CLR,0.00,VWS V14.01,2013-08-14 07:38:00,
2013-08-14 03:43:00,48.8,-3.4,29.86,WNW,303,3.0,5.0,11,0.00,,CLR,0.00,VWS V14.01,2013-08-14 07:43:00,
2013-08-14 03:48:00,48.7,-5.4,29.86,WNW,303,2.0,5.0,10,0.00,,CLR,0.00,VWS V14.01,2013-08-14 07:48:00,
2013-08-14 03:53:00,48.7,-5.4,29.87,WNW,303,3.0,4.0,10,0.00,,CLR,0.00,VWS V14.01,2013-08-14 07:53:00,
2013-08-14 03:58:00,48.5,-5.6,29.87,WNW,303,3.0,4.0,10,0.00,,CLR,0.00,VWS V14.01,2013-08-14 07:58:00,
2013-08-14 04:03:00,48.4,-7.8,29.87,WNW,303,0.0,3.0,9,0.00,,CLR,0.00,VWS V14.01,2013-08-14 08:03:00,
2013-08-14 04:08:00,48.2,-8.0,29.88,WNW,303,0.0,1.0,9,0.00,,CLR,0.00,VWS V14.01,2013-08-14 08:08:00,
2013-08-14 04:13:00,47.9,-8.2,29.88,WNW,303,0.0,2.0,9,0.00,,CLR,0.00,VWS V14.01,2013-08-14 08:13:00,
2013-08-14 04:18:00,47.8,-10.7,29.88,WNW,303,1.0,1.0,8,0.00,,CLR,0.00,VWS V14.01,2013-08-14 08:18:00,
2013-08-14 04:23:00,47.7,-13.4,29.88,WNW,303,1.0,2.0,7,0.00,,CLR,0.00,VWS V14.01,2013-08-14 08:23:00,
2013-08-14 04:28:00,47.7,-13.4,29.88,WNW,303,1.0,1.0,6,0.00,,CLR,0.00,VWS V14.01,2013-08-14 08:28:00,
2013-08-14 04:33:00,47.6,-13.4,29.88,WNW,303,2.0,4.0,6,0.00,,CLR,0.00,VWS V14.01,2013-08-14 08:33:00,
2013-08-14 04:38:00,47.5,-13.4,29.88,WNW,303,2.0,3.0,6,0.00,,CLR,0.00,VWS V14.01,2013-08-14 08:38:00,
2013-08-14 04:43:00,47.3,-13.4,29.88,WNW,303,3.0,3.0,5,0.00,,CLR,0.00,VWS V14.01,2013-08-14 08:43:00,
2013-08-14 04:48:00,46.9,-13.4,29.88,WNW,303,0.0,0.0,5,0.00,,CLR,0.00,VWS V14.01,2013-08-14 08:48:00,
2013-08-14 04:53:00,46.8,-13.4,29.88,WNW,303,0.0,4.0,5,0.00,,CLR,0.00,VWS V14.01,2013-08-14 08:53:00,
2013-08-14 04:58:00,46.8,-13.4,29.88,WNW,303,1.0,1.0,4,0.00,,CLR,0.00,VWS V14.01,2013-08-14 08:58:00,
2013-08-14 05:03:00,46.9,-13.4,29.88,WNW,303,1.0,2.0,4,0.00,,CLR,0.00,VWS V14.01,2013-08-14 09:03:00,
2013-08-14 05:08:00,46.8,-13.4,29.87,WNW,303,0.0,0.0,3,0.00,,CLR,0.00,VWS V14.01,2013-08-14 09:08:00,
2013-08-14 05:13:00,46.9,-13.4,29.87,WNW,303,0.0,1.0,3,0.00,,CLR,0.00,VWS V14.01,2013-08-14 09:13:00,
2013-08-14 05:19:00,46.8,-13.4,29.87,WNW,303,0.0,1.0,3,0.00,,CLR,0.00,VWS V14.01,2013-08-14 09:19:00,
2013-08-14 05:24:00,46.8,-13.4,29.89,WNW,303,0.0,2.0,3,0.00,,CLR,0.00,VWS V14.01,2013-08-14 09:24:00,
2013-08-14 05:29:00,46.7,-13.4,29.89,WNW,303,0.0,0.0,3,0.00,,CLR,0.00,VWS V14.01,2013-08-14 09:29:00,
2013-08-14 05:34:00,46.7,-13.4,29.89,WNW,303,0.0,2.0,2,0.00,,SCT042,0.00,VWS V14.01,2013-08-14 09:34:00,
2013-08-14 05:39:00,46.3,-13.4,29.89,WNW,303,0.0,1.0,2,0.00,,SCT042,0.00,VWS V14.01,2013-08-14 09:39:00,
2013-08-14 05:44:00,46.4,-13.4,29.89,WNW,303,0.0,2.0,2,0.00,,SCT042,0.00,VWS V14.01,2013-08-14 09:44:00,
2013-08-14 05:49:00,46.5,-13.4,29.89,WNW,303,1.0,2.0,2,0.00,,SCT042,0.00,VWS V14.01,2013-08-14 09:49:00,
2013-08-14 05:54:00,46.9,-13.4,29.89,WNW,303,0.0,4.0,1,0.00,,SCT042,0.00,VWS V14.01,2013-08-14 09:54:00,
2013-08-14 05:59:00,47.0,-13.4,29.89,WNW,303,2.0,3.0,1,0.00,,SCT042,0.00,VWS V14.01,2013-08-14 09:59:00,
2013-08-14 06:04:00,47.1,-13.4,29.89,WNW,303,1.0,4.0,1,0.00,,BKN042,0.00,VWS V14.01,2013-08-14 10:04:00,
2013-08-14 06:09:00,47.3,-13.4,29.89,WNW,303,2.0,4.0,1,0.00,,BKN042,0.00,VWS V14.01,2013-08-14 10:09:00,
2013-08-14 06:14:00,47.4,-13.4,29.89,WNW,303,0.0,4.0,1,0.00,,BKN042,0.00,VWS V14.01,2013-08-14 10:14:00,
2013-08-14 06:19:00,47.7,0.0,29.89,WNW,303,0.0,3.0,0,0.00,,BKN042,0.00,VWS V14.01,2013-08-14 10:19:00,
2013-08-14 06:24:00,47.9,0.0,29.91,WNW,303,1.0,4.0,0,0.00,,BKN042,0.00,VWS V14.01,2013-08-14 10:24:00,
2013-08-14 06:29:00,47.9,0.0,29.91,WNW,303,0.0,2.0,0,0.00,,BKN042,0.00,VWS V14.01,2013-08-14 10:29:00,
2013-08-14 06:34:00,48.0,0.0,29.91,WNW,303,1.0,4.0,0,0.00,,BKN042,0.00,VWS V14.01,2013-08-14 10:34:00,
2013-08-14 06:39:00,48.2,0.0,29.91,WNW,302,0.0,1.0,0,0.00,,BKN042,0.00,VWS V14.01,2013-08-14 10:39:00,
2013-08-14 06:44:00,48.2,0.0,29.91,WNW,301,3.0,3.0,0,0.00,,BKN042,0.00,VWS V14.01,2013-08-14 10:44:00,
2013-08-14 06:49:00,48.2,0.0,29.91,WNW,300,2.0,5.0,0,0.00,,BKN042,0.00,VWS V14.01,2013-08-14 10:49:00,
2013-08-14 06:54:00,48.5,0.0,29.91,WSW,246,1.0,7.0,0,0.00,,BKN042,0.00,VWS V14.01,2013-08-14 10:54:00,
2013-08-14 06:59:00,48.6,0.0,29.91,WNW,284,1.0,2.0,0,0.00,,BKN042,0.00,VWS V14.01,2013-08-14 10:59:00,
2013-08-14 07:04:00,48.7,0.0,29.91,WSW,253,0.0,5.0,0,0.00,,BKN042,0.00,VWS V14.01,2013-08-14 11:04:00,
2013-08-14 07:09:00,48.8,0.0,29.92,WNW,288,0.0,10.0,0,0.00,,BKN042,0.00,VWS V14.01,2013-08-14 11:09:00,
2013-08-14 07:14:00,49.1,0.0,29.92,NW,315,4.0,10.0,1,0.00,,BKN042,0.00,VWS V14.01,2013-08-14 11:14:00,
2013-08-14 07:19:00,49.2,0.0,29.92,West,269,0.0,2.0,1,0.00,,BKN042,0.00,VWS V14.01,2013-08-14 11:19:00,
2013-08-14 07:25:00,49.5,0.0,29.92,West,269,0.0,2.0,2,0.00,,BKN042,0.00,VWS V14.01,2013-08-14 11:25:00,
2013-08-14 07:30:00,49.7,0.0,29.92,NW,317,5.0,6.0,3,0.00,,BKN042,0.00,VWS V14.01,2013-08-14 11:30:00,
2013-08-14 07:35:00,49.9,0.0,29.92,WNW,302,4.0,12.0,5,0.00,,BKN019,0.00,VWS V14.01,2013-08-14 11:35:00,
2013-08-14 07:40:00,50.0,-11.7,29.93,WSW,253,6.0,16.0,7,0.00,,BKN019,0.00,VWS V14.01,2013-08-14 11:40:00,
2013-08-14 07:45:00,50.2,-8.9,29.93,NW,318,9.0,19.0,8,0.00,,BKN019,0.00,VWS V14.01,2013-08-14 11:45:00,
2013-08-14 07:50:00,50.2,-6.4,29.93,WNW,292,5.0,11.0,9,0.00,,BKN019,0.00,VWS V14.01,2013-08-14 11:50:00,
2013-08-14 07:55:00,50.3,-4.2,29.93,West,279,4.0,15.0,10,0.00,,BKN019,0.00,VWS V14.01,2013-08-14 11:55:00,
2013-08-14 08:00:00,50.5,-0.2,29.93,WNW,286,10.0,15.0,12,0.00,,BKN019,0.00,VWS V14.01,2013-08-14 12:00:00,
2013-08-14 08:05:00,50.7,3.2,29.93,West,280,8.0,18.0,14,0.00,,BKN019,0.00,VWS V14.01,2013-08-14 12:05:00,
2013-08-14 08:10:00,51.0,3.5,29.92,West,259,3.0,9.0,14,0.00,,BKN019,0.00,VWS V14.01,2013-08-14 12:10:00,
2013-08-14 08:15:00,51.2,7.9,29.92,NW,304,7.0,17.0,17,0.00,,BKN019,0.00,VWS V14.01,2013-08-14 12:15:00,
2013-08-14 08:20:00,51.4,8.1,29.92,NW,325,4.0,12.0,17,0.00,,BKN019,0.00,VWS V14.01,2013-08-14 12:20:00,
2013-08-14 08:25:00,51.5,9.4,29.93,West,272,7.0,14.0,18,0.00,,BKN019,0.00,VWS V14.01,2013-08-14 12:25:00,
2013-08-14 08:30:00,51.7,9.6,29.93,WNW,296,3.0,7.0,18,0.00,,BKN019,0.00,VWS V14.01,2013-08-14 12:30:00,
2013-08-14 08:35:00,51.9,12.1,29.93,WNW,299,11.0,16.0,20,0.00,,OVC020,0.00,VWS V14.01,2013-08-14 12:35:00,
2013-08-14 08:40:00,51.9,13.2,29.94,WNW,294,6.0,13.0,21,0.00,,OVC020,0.00,VWS V14.01,2013-08-14 12:40:00,
2013-08-14 08:45:00,52.1,13.4,29.94,WNW,291,7.0,13.0,21,0.00,,OVC020,0.00,VWS V14.01,2013-08-14 12:45:00,
2013-08-14 08:50:00,52.2,13.5,29.94,NW,322,5.0,12.0,21,0.00,,OVC020,0.00,VWS V14.01,2013-08-14 12:50:00,
2013-08-14 08:55:00,52.3,14.6,29.94,West,267,14.0,14.0,22,0.00,,OVC020,0.00,VWS V14.01,2013-08-14 12:55:00,
2013-08-14 09:00:00,52.4,15.7,29.94,West,281,4.0,13.0,23,0.00,,OVC020,0.00,VWS V14.01,2013-08-14 13:00:00,
2013-08-14 09:05:00,52.7,14.9,29.94,WNW,286,7.0,13.0,22,0.00,,OVC020,0.00,VWS V14.01,2013-08-14 13:05:00,
2013-08-14 09:10:00,52.7,18.8,29.95,WNW,295,10.0,17.0,26,0.00,,OVC020,0.00,VWS V14.01,2013-08-14 13:10:00,
2013-08-14 09:15:00,52.7,17.9,29.95,West,280,11.0,17.0,25,0.00,,OVC020,0.00,VWS V14.01,2013-08-14 13:15:00,
2013-08-14 09:20:00,52.8,18.9,29.95,WNW,299,4.0,9.0,26,0.00,,OVC020,0.00,VWS V14.01,2013-08-14 13:20:00,
2013-08-14 09:25:00,52.9,18.0,29.96,NW,307,4.0,13.0,25,0.00,,OVC020,0.00,VWS V14.01,2013-08-14 13:25:00,
2013-08-14 09:30:00,52.8,18.9,29.96,WNW,294,9.0,14.0,26,0.00,,OVC020,0.00,VWS V14.01,2013-08-14 13:30:00,
2013-08-14 09:35:00,52.7,19.7,29.96,WNW,284,7.0,14.0,27,0.00,,-RA,0.00,VWS V14.01,2013-08-14 13:35:00,
2013-08-14 09:40:00,52.8,17.0,29.96,NNW,338,3.0,9.0,24,0.00,,-RA,0.00,VWS V14.01,2013-08-14 13:40:00,
2013-08-14 09:45:00,53.0,18.1,29.96,NW,305,11.0,18.0,25,0.00,,-RA,0.00,VWS V14.01,2013-08-14 13:45:00,
2013-08-14 09:50:00,52.9,20.7,29.96,WNW,285,11.0,21.0,28,0.00,,-RA,0.00,VWS V14.01,2013-08-14 13:50:00,
2013-08-14 09:55:00,53.1,20.0,29.96,NW,317,11.0,21.0,27,0.00,,-RA,0.00,VWS V14.01,2013-08-14 13:55:00,
2013-08-14 10:00:00,53.1,21.7,29.96,West,267,3.0,15.0,29,0.00,,-RA,0.00,VWS V14.01,2013-08-14 14:00:00,
2013-08-14 10:05:00,53.2,21.0,29.96,WNW,289,9.0,18.0,28,0.00,,-RA,0.00,VWS V14.01,2013-08-14 14:05:00,
2013-08-14 10:10:00,53.3,23.5,29.96,NNW,348,7.0,18.0,31,0.00,,-RA,0.00,VWS V14.01,2013-08-14 14:10:00,
2013-08-14 10:15:00,53.3,22.7,29.96,West,279,11.0,18.0,30,0.00,,-RA,0.00,VWS V14.01,2013-08-14 14:15:00,
2013-08-14 10:20:00,53.5,20.4,29.96,WNW,288,8.0,9.0,27,0.00,,-RA,0.00,VWS V14.01,2013-08-14 14:20:00,
2013-08-14 10:25:00,54.6,23.8,29.98,North,355,8.0,15.0,30,0.00,,-RA,0.00,VWS V14.01,2013-08-14 14:25:00,
2013-08-14 10:30:00,54.5,27.4,29.98,NW,309,5.0,9.0,35,0.00,,-RA,0.00,VWS V14.01,2013-08-14 14:30:00,
2013-08-14 10:35:00,53.9,28.9,29.98,NW,313,9.0,12.0,38,0.00,,OVC016,0.00,VWS V14.01,2013-08-14 14:35:00,
2013-08-14 10:40:00,53.6,28.0,29.98,NW,315,5.0,11.0,37,0.00,,OVC016,0.00,VWS V14.01,2013-08-14 14:40:00,
2013-08-14 10:45:00,53.9,28.2,29.98,NW,319,9.0,12.0,37,0.00,,OVC016,0.00,VWS V14.01,2013-08-14 14:45:00,
2013-08-14 10:50:00,55.0,32.3,29.98,NW,317,4.0,10.0,42,0.00,,OVC016,0.00,VWS V14.01,2013-08-14 14:50:00,
2013-08-14 10:55:00,55.4,36.1,29.98,NNW,330,5.0,16.0,48,0.00,,OVC016,0.00,VWS V14.01,2013-08-14 14:55:00,
2013-08-14 11:00:00,55.5,35.6,29.98,NW,321,7.0,10.0,47,0.00,,OVC016,0.00,VWS V14.01,2013-08-14 15:00:00,
2013-08-14 11:05:00,55.8,36.9,29.98,WNW,284,11.0,15.0,49,0.00,,OVC016,0.00,VWS V14.01,2013-08-14 15:05:00,
2013-08-14 11:10:00,55.1,34.7,29.98,WNW,282,8.0,14.0,46,0.00,,OVC016,0.00,VWS V14.01,2013-08-14 15:10:00,
2013-08-14 11:15:00,54.9,32.8,29.98,WNW,295,7.0,14.0,43,0.00,,OVC016,0.00,VWS V14.01,2013-08-14 15:15:00,
2013-08-14 11:20:00,54.8,32.2,29.98,WNW,292,5.0,9.0,42,0.00,,OVC016,0.00,VWS V14.01,2013-08-14 15:20:00,
2013-08-14 11:25:00,55.1,33.6,30.00,NNW,327,2.0,14.0,44,0.00,,OVC016,0.00,VWS V14.01,2013-08-14 15:25:00,
2013-08-14 11:30:00,55.9,33.2,30.00,NW,326,8.0,11.0,42,0.00,,OVC016,0.00,VWS V14.01,2013-08-14 15:30:00,
2013-08-14 11:35:00,56.1,37.2,30.00,West,277,15.0,15.0,49,0.00,,BKN035,0.00,VWS V14.01,2013-08-14 15:35:00,
2013-08-14 11:40:00,56.0,37.1,29.99,WNW,295,11.0,18.0,49,0.00,,BKN035,0.00,VWS V14.01,2013-08-14 15:40:00,
2013-08-14 11:45:00,55.8,35.9,29.99,NW,313,3.0,18.0,47,0.00,,BKN035,0.00,VWS V14.01,2013-08-14 15:45:00,
2013-08-14 11:50:00,56.3,35.2,29.99,West,274,12.0,12.0,45,0.00,,BKN035,0.00,VWS V14.01,2013-08-14 15:50:00,
2013-08-14 11:55:00,55.8,36.9,29.99,WNW,284,6.0,13.0,49,0.00,,BKN035,0.00,VWS V14.01,2013-08-14 15:55:00,
2013-08-14 12:00:00,57.3,36.7,29.99,WSW,254,4.0,12.0,46,0.00,,BKN035,0.00,VWS V14.01,2013-08-14 16:00:00,
2013-08-14 12:05:00,57.1,41.6,29.99,West,279,9.0,19.0,56,0.00,,BKN035,0.00,VWS V14.01,2013-08-14 16:05:00,
2013-08-14 12:10:00,56.7,40.3,29.99,WNW,298,9.0,12.0,54,0.00,,BKN035,0.00,VWS V14.01,2013-08-14 16:10:00,
2013-08-14 12:15:00,56.2,38.3,29.99,West,279,12.0,16.0,51,0.00,,BKN035,0.00,VWS V14.01,2013-08-14 16:15:00,
2013-08-14 12:20:00,55.9,37.0,29.99,WNW,296,15.0,15.0,49,0.00,,BKN035,0.00,VWS V14.01,2013-08-14 16:20:00,
2013-08-14 12:26:00,55.5,35.6,30.00,NW,312,7.0,15.0,47,0.00,,BKN035,0.00,VWS V14.01,2013-08-14 16:26:00,
2013-08-14 12:31:00,55.7,34.7,30.00,WSW,257,3.0,12.0,45,0.00,,BKN035,0.00,VWS V14.01,2013-08-14 16:31:00,
2013-08-14 12:36:00,56.3,35.2,30.00,NW,319,4.0,12.0,45,0.00,,OVC039,0.00,VWS V14.01,2013-08-14 16:36:00,
2013-08-14 12:41:00,57.0,38.6,30.00,NNW,334,11.0,12.0,50,0.00,,OVC039,0.00,VWS V14.01,2013-08-14 16:41:00,
2013-08-14 12:46:00,58.3,40.8,30.00,NNW,346,5.0,15.0,52,0.00,,OVC039,0.00,VWS V14.01,2013-08-14 16:46:00,
2013-08-14 12:51:00,58.3,42.7,30.00,WNW,286,5.0,17.0,56,0.00,,OVC039,0.00,VWS V14.01,2013-08-14 16:51:00,
2013-08-14 12:56:00,58.2,42.6,29.99,NW,323,11.0,17.0,56,0.00,,OVC039,0.00,VWS V14.01,2013-08-14 16:56:00,
2013-08-14 13:02:00,57.5,43.3,29.99,NNW,337,11.0,21.0,59,0.00,,OVC039,0.00,VWS V14.01,2013-08-14 17:02:00,
2013-08-14 13:07:00,57.3,42.2,29.99,NNW,332,7.0,21.0,57,0.00,,OVC039,0.00,VWS V14.01,2013-08-14 17:07:00,
2013-08-14 13:12:00,57.3,41.3,30.00,West,260,13.0,14.0,55,0.00,,OVC039,0.00,VWS V14.01,2013-08-14 17:12:00,
2013-08-14 13:17:00,57.3,41.3,30.00,NW,315,5.0,15.0,55,0.00,,OVC039,0.00,VWS V14.01,2013-08-14 17:17:00,
2013-08-14 13:22:00,57.6,41.6,30.00,NW,313,5.0,15.0,55,0.00,,OVC039,0.00,VWS V14.01,2013-08-14 17:22:00,
2013-08-14 13:27:00,59.7,40.0,30.00,NNW,346,7.0,15.0,48,0.00,,OVC039,0.00,VWS V14.01,2013-08-14 17:27:00,
2013-08-14 13:32:00,59.7,44.0,30.00,WNW,298,5.0,10.0,56,0.00,,OVC038,0.00,VWS V14.01,2013-08-14 17:32:00,
2013-08-14 13:37:00,59.1,43.9,30.00,WNW,283,8.0,15.0,57,0.00,,OVC038,0.00,VWS V14.01,2013-08-14 17:37:00,
2013-08-14 13:42:00,59.1,44.8,30.00,WNW,283,3.0,14.0,59,0.00,,OVC038,0.00,VWS V14.01,2013-08-14 17:42:00,
2013-08-14 13:47:00,58.3,44.0,30.00,WNW,291,7.0,17.0,59,0.00,,OVC038,0.00,VWS V14.01,2013-08-14 17:47:00,
2013-08-14 13:52:00,57.7,41.2,30.00,West,277,12.0,16.0,54,0.00,,OVC038,0.00,VWS V14.01,2013-08-14 17:52:00,
2013-08-14 13:57:00,58.1,42.0,30.00,WNW,287,3.0,16.0,55,0.00,,OVC038,0.00,VWS V14.01,2013-08-14 17:57:00,
2013-08-14 14:02:00,59.3,43.2,30.00,West,271,4.0,15.0,55,0.00,,OVC038,0.00,VWS V14.01,2013-08-14 18:02:00,
2013-08-14 14:07:00,58.9,43.7,30.00,NW,314,7.0,15.0,57,0.00,,OVC038,0.00,VWS V14.01,2013-08-14 18:07:00,
2013-08-14 14:12:00,59.1,44.3,30.00,NNW,330,2.0,15.0,58,0.00,,OVC038,0.00,VWS V14.01,2013-08-14 18:12:00,
2013-08-14 14:17:00,59.4,45.1,30.00,NW,311,10.0,15.0,59,0.00,,OVC038,0.00,VWS V14.01,2013-08-14 18:17:00,
2013-08-14 14:23:00,59.5,44.3,30.00,West,259,7.0,10.0,57,0.00,,OVC038,0.00,VWS V14.01,2013-08-14 18:23:00,
2013-08-14 14:28:00,59.3,45.0,30.00,WNW,288,3.0,11.0,59,0.00,,OVC038,0.00,VWS V14.01,2013-08-14 18:28:00,
2013-08-14 14:33:00,59.0,44.7,30.00,WNW,297,16.0,16.0,59,0.00,,OVC043,0.00,VWS V14.01,2013-08-14 18:33:00,
2013-08-14 14:38:00,58.6,43.9,30.00,WNW,288,6.0,16.0,58,0.00,,OVC043,0.00,VWS V14.01,2013-08-14 18:38:00,
2013-08-14 14:43:00,58.4,43.2,30.00,WNW,296,5.0,14.0,57,0.00,,OVC043,0.00,VWS V14.01,2013-08-14 18:43:00,
2013-08-14 14:49:00,58.1,41.6,30.00,West,277,12.0,15.0,54,0.00,,OVC043,0.00,VWS V14.01,2013-08-14 18:49:00,
2013-08-14 14:54:00,59.2,40.6,30.00,West,268,10.0,15.0,50,0.00,,OVC043,0.00,VWS V14.01,2013-08-14 18:54:00,
2013-08-14 14:59:00,58.6,42.0,30.00,NW,320,9.0,12.0,54,0.00,,OVC043,0.00,VWS V14.01,2013-08-14 18:59:00,
2013-08-14 15:00:00,59.6,44.4,30.00,WNW,283,3.0,6.0,57,0.00,,OVC043,0.00,VWS V14.01,2013-08-14 19:00:00,
2013-08-14 15:04:00,58.8,41.7,30.00,WNW,290,6.0,13.0,53,0.00,,OVC043,0.00,VWS V14.01,2013-08-14 19:04:00,
2013-08-14 15:11:00,59.4,44.2,30.00,WNW,295,10.0,10.0,57,0.00,,OVC043,0.00,VWS V14.01,2013-08-14 19:11:00,
2013-08-14 15:16:00,60.0,44.7,30.00,West,277,10.0,14.0,57,0.00,,OVC043,0.00,VWS V14.01,2013-08-14 19:16:00,
2013-08-14 15:21:00,59.3,44.5,30.00,West,281,9.0,17.0,58,0.00,,OVC043,0.00,VWS V14.01,2013-08-14 19:21:00,
2013-08-14 15:26:00,58.9,44.2,30.00,WNW,299,6.0,17.0,58,0.00,,OVC043,0.00,VWS V14.01,2013-08-14 19:26:00,
2013-08-14 15:31:00,58.8,43.6,30.00,NW,313,11.0,12.0,57,0.00,,OVC049,0.00,VWS V14.01,2013-08-14 19:31:00,
2013-08-14 15:36:00,58.5,43.3,30.00,WNW,300,14.0,15.0,57,0.00,,OVC049,0.00,VWS V14.01,2013-08-14 19:36:00,
2013-08-14 15:41:00,58.6,42.5,30.00,WNW,284,6.0,15.0,55,0.00,,OVC049,0.00,VWS V14.01,2013-08-14 19:41:00,
2013-08-14 15:46:00,58.7,43.1,30.00,WNW,300,11.0,16.0,56,0.00,,OVC049,0.00,VWS V14.01,2013-08-14 19:46:00,
2013-08-14 15:51:00,58.6,43.4,30.00,WNW,296,7.0,13.0,57,0.00,,OVC049,0.00,VWS V14.01,2013-08-14 19:51:00,
2013-08-14 15:57:00,58.8,44.1,30.00,WNW,294,9.0,15.0,58,0.00,,OVC049,0.00,VWS V14.01,2013-08-14 19:57:00,
2013-08-14 16:02:00,59.9,44.7,30.00,WNW,288,5.0,14.0,57,0.00,,OVC049,0.00,VWS V14.01,2013-08-14 20:02:00,
2013-08-14 16:07:00,60.8,45.5,30.00,WNW,303,5.0,14.0,57,0.00,,OVC049,0.00,VWS V14.01,2013-08-14 20:07:00,
2013-08-14 16:12:00,59.9,45.5,30.00,WNW,298,5.0,16.0,59,0.00,,OVC049,0.00,VWS V14.01,2013-08-14 20:12:00,
2013-08-14 16:17:00,59.2,44.5,30.00,WNW,294,9.0,16.0,58,0.00,,OVC049,0.00,VWS V14.01,2013-08-14 20:17:00,
2013-08-14 16:22:00,59.2,42.6,30.02,WSW,248,14.0,14.0,54,0.00,,OVC049,0.00,VWS V14.01,2013-08-14 20:22:00,
2013-08-14 16:27:00,59.2,43.1,30.02,WNW,296,13.0,19.0,55,0.00,,OVC049,0.00,VWS V14.01,2013-08-14 20:27:00,
2013-08-14 16:33:00,59.6,43.4,30.02,West,265,5.0,15.0,55,0.00,,OVC055,0.00,VWS V14.01,2013-08-14 20:33:00,
2013-08-14 16:38:00,60.0,44.7,30.02,West,264,11.0,11.0,57,0.00,,OVC055,0.00,VWS V14.01,2013-08-14 20:38:00,
2013-08-14 16:43:00,59.5,44.7,30.02,West,268,4.0,18.0,58,0.00,,OVC055,0.00,VWS V14.01,2013-08-14 20:43:00,
2013-08-14 16:48:00,60.0,45.2,30.02,West,265,8.0,9.0,58,0.00,,OVC055,0.00,VWS V14.01,2013-08-14 20:48:00,
2013-08-14 16:53:00,60.2,45.8,30.02,WSW,257,7.0,16.0,59,0.00,,OVC055,0.00,VWS V14.01,2013-08-14 20:53:00,
2013-08-14 16:58:00,60.8,46.4,30.02,West,275,10.0,12.0,59,0.00,,OVC055,0.00,VWS V14.01,2013-08-14 20:58:00,
2013-08-14 17:03:00,60.3,45.9,30.02,WNW,282,6.0,14.0,59,0.00,,OVC055,0.00,VWS V14.01,2013-08-14 21:03:00,
2013-08-14 17:08:00,60.0,45.2,30.02,WNW,291,4.0,6.0,58,0.00,,OVC055,0.00,VWS V14.01,2013-08-14 21:08:00,
2013-08-14 17:13:00,59.9,45.1,30.02,West,267,6.0,6.0,58,0.00,,OVC055,0.00,VWS V14.01,2013-08-14 21:13:00,
2013-08-14 17:18:00,59.8,44.5,30.02,WNW,294,4.0,5.0,57,0.00,,OVC055,0.00,VWS V14.01,2013-08-14 21:18:00,
2013-08-14 17:23:00,59.6,45.3,30.02,NW,311,4.0,9.0,59,0.00,,OVC055,0.00,VWS V14.01,2013-08-14 21:23:00,
2013-08-14 17:28:00,59.6,44.8,30.02,WNW,296,4.0,6.0,58,0.00,,OVC055,0.00,VWS V14.01,2013-08-14 21:28:00,
2013-08-14 17:33:00,60.5,45.2,30.02,West,266,7.0,10.0,57,0.00,,BKN055,0.00,VWS V14.01,2013-08-14 21:33:00,
2013-08-14 17:38:00,61.1,46.7,30.01,WNW,296,5.0,6.0,59,0.00,,BKN055,0.00,VWS V14.01,2013-08-14 21:38:00,
2013-08-14 17:43:00,61.2,47.7,30.01,NW,310,13.0,15.0,61,0.00,,BKN055,0.00,VWS V14.01,2013-08-14 21:43:00,
2013-08-14 17:48:00,61.1,47.1,30.01,West,281,9.0,12.0,60,0.00,,BKN055,0.00,VWS V14.01,2013-08-14 21:48:00,
2013-08-14 17:53:00,61.4,47.8,30.01,NW,321,8.0,12.0,61,0.00,,BKN055,0.00,VWS V14.01,2013-08-14 21:53:00,
2013-08-14 17:58:00,59.9,46.0,30.01,NW,306,3.0,4.0,60,0.00,,BKN055,0.00,VWS V14.01,2013-08-14 21:58:00,
2013-08-14 18:04:00,59.2,44.9,30.01,WNW,296,4.0,7.0,59,0.00,,BKN055,0.00,VWS V14.01,2013-08-14 22:04:00,
2013-08-14 18:09:00,59.6,44.8,30.02,WNW,287,4.0,5.0,58,0.00,,BKN055,0.00,VWS V14.01,2013-08-14 22:09:00,
2013-08-14 18:14:00,60.8,46.0,30.02,WNW,294,7.0,13.0,58,0.00,,BKN055,0.00,VWS V14.01,2013-08-14 22:14:00,
2013-08-14 18:19:00,60.9,47.4,30.02,NW,304,5.0,8.0,61,0.00,,BKN055,0.00,VWS V14.01,2013-08-14 22:19:00,
2013-08-14 18:24:00,61.0,47.5,30.00,NNW,338,6.0,14.0,61,0.00,,BKN055,0.00,VWS V14.01,2013-08-14 22:24:00,
2013-08-14 18:29:00,60.8,47.7,30.00,WNW,300,6.0,7.0,62,0.00,,BKN055,0.00,VWS V14.01,2013-08-14 22:29:00,
2013-08-14 18:34:00,60.9,47.8,30.00,NW,307,7.0,14.0,62,0.00,,BKN055,0.00,VWS V14.01,2013-08-14 22:34:00,
2013-08-14 18:39:00,61.0,47.9,30.00,NNW,330,4.0,7.0,62,0.00,,BKN055,0.00,VWS V14.01,2013-08-14 22:39:00,
2013-08-14 18:44:00,61.0,47.9,30.00,WNW,297,9.0,11.0,62,0.00,,BKN055,0.00,VWS V14.01,2013-08-14 22:44:00,
2013-08-14 18:49:00,60.7,47.6,30.00,WNW,300,8.0,11.0,62,0.00,,BKN055,0.00,VWS V14.01,2013-08-14 22:49:00,
2013-08-14 18:54:00,60.7,47.6,30.00,WNW,284,4.0,11.0,62,0.00,,BKN055,0.00,VWS V14.01,2013-08-14 22:54:00,
2013-08-14 18:59:00,60.8,47.7,30.00,WNW,294,2.0,3.0,62,0.00,,BKN055,0.00,VWS V14.01,2013-08-14 22:59:00,
2013-08-14 19:04:00,60.7,47.6,30.00,West,278,12.0,12.0,62,0.00,,BKN055,0.00,VWS V14.01,2013-08-14 23:04:00,
2013-08-14 19:09:00,60.3,47.2,30.00,WNW,290,11.0,11.0,62,0.00,,BKN055,0.00,VWS V14.01,2013-08-14 23:09:00,
2013-08-14 19:15:00,60.0,46.5,30.00,WNW,293,9.0,13.0,61,0.00,,BKN055,0.00,VWS V14.01,2013-08-14 23:15:00,
2013-08-14 19:20:00,59.7,46.2,30.00,WNW,282,5.0,11.0,61,0.00,,BKN055,0.00,VWS V14.01,2013-08-14 23:20:00,
2013-08-14 19:25:00,59.5,45.6,30.00,WNW,290,4.0,11.0,60,0.00,,BKN055,0.00,VWS V14.01,2013-08-14 23:25:00,
2013-08-14 19:30:00,59.4,44.6,30.00,WNW,285,3.0,4.0,58,0.00,,BKN055,0.00,VWS V14.01,2013-08-14 23:30:00,
2013-08-14 19:35:00,59.3,44.1,30.00,West,279,5.0,6.0,57,0.00,,CLR,0.00,VWS V14.01,2013-08-14 23:35:00,
2013-08-14 19:40:00,59.1,43.9,30.01,West,276,2.0,4.0,57,0.00,,CLR,0.00,VWS V14.01,2013-08-14 23:40:00,
2013-08-14 19:45:00,58.8,42.7,30.01,WNW,286,2.0,5.0,55,0.00,,CLR,0.00,VWS V14.01,2013-08-14 23:45:00,
2013-08-14 19:50:00,58.6,41.5,30.01,WNW,286,3.0,3.0,53,0.00,,CLR,0.00,VWS V14.01,2013-08-14 23:50:00,
2013-08-14 19:55:00,58.1,40.1,30.01,WNW,286,1.0,3.0,51,0.00,,CLR,0.00,VWS V14.01,2013-08-14 23:55:00,
2013-08-14 20:00:00,57.5,38.0,30.01,WNW,286,0.0,2.0,48,0.00,,CLR,0.00,VWS V14.01,2013-08-15 00:00:00,
2013-08-14 20:05:00,56.9,35.8,30.01,WNW,286,1.0,4.0,45,0.00,,CLR,0.00,VWS V14.01,2013-08-15 00:05:00,
2013-08-14 20:10:00,56.6,33.8,30.03,WNW,286,1.0,2.0,42,0.00,,CLR,0.00,VWS V14.01,2013-08-15 00:10:00,
2013-08-14 20:15:00,56.3,31.7,30.03,WNW,286,0.0,2.0,39,0.00,,CLR,0.00,VWS V14.01,2013-08-15 00:15:00,
2013-08-14 20:20:00,56.2,29.6,30.03,WNW,286,0.0,2.0,36,0.00,,CLR,0.00,VWS V14.01,2013-08-15 00:20:00,
2013-08-14 20:25:00,55.9,28.0,30.03,WNW,286,0.0,2.0,34,0.00,,CLR,0.00,VWS V14.01,2013-08-15 00:25:00,
2013-08-14 20:30:00,55.5,25.4,30.03,WNW,286,0.0,0.0,31,0.00,,CLR,0.00,VWS V14.01,2013-08-15 00:30:00,
2013-08-14 20:35:00,55.3,22.8,30.03,WNW,286,0.0,2.0,28,0.00,,CLR,0.00,VWS V14.01,2013-08-15 00:35:00,
2013-08-14 20:40:00,55.1,20.9,30.04,WNW,286,0.0,4.0,26,0.00,,CLR,0.00,VWS V14.01,2013-08-15 00:40:00,
2013-08-14 20:45:00,54.9,17.8,30.04,WNW,286,0.0,4.0,23,0.00,,CLR,0.00,VWS V14.01,2013-08-15 00:45:00,
2013-08-14 20:50:00,54.6,14.4,30.04,WNW,286,0.0,1.0,20,0.00,,CLR,0.00,VWS V14.01,2013-08-15 00:50:00,
2013-08-14 20:55:00,54.2,11.6,30.04,WNW,286,0.0,1.0,18,0.00,,CLR,0.00,VWS V14.01,2013-08-15 00:55:00,
2013-08-14 21:00:00,53.7,8.6,30.04,WNW,286,0.0,0.0,16,0.00,,CLR,0.00,VWS V14.01,2013-08-15 01:00:00,
2013-08-14 21:05:00,53.4,5.4,30.04,WNW,286,0.0,0.0,14,0.00,,CLR,0.00,VWS V14.01,2013-08-15 01:05:00,
2013-08-14 21:10:00,53.2,1.9,30.05,WNW,286,1.0,1.0,12,0.00,,CLR,0.00,VWS V14.01,2013-08-15 01:10:00,
2013-08-14 21:15:00,52.9,-2.2,30.05,WNW,286,0.0,1.0,10,0.00,,CLR,0.00,VWS V14.01,2013-08-15 01:15:00,
2013-08-14 21:20:00,52.7,-4.5,30.05,WNW,286,0.0,0.0,9,0.00,,CLR,0.00,VWS V14.01,2013-08-15 01:20:00,
2013-08-14 21:25:00,52.5,-7.1,30.06,WNW,286,0.0,0.0,8,0.00,,CLR,0.00,VWS V14.01,2013-08-15 01:25:00,
2013-08-14 21:30:00,52.4,-9.9,30.06,WNW,286,0.0,0.0,7,0.00,,CLR,0.00,VWS V14.01,2013-08-15 01:30:00,
2013-08-14 21:35:00,52.2,-13.2,30.06,WNW,286,0.0,0.0,6,0.00,,SCT047,0.00,VWS V14.01,2013-08-15 01:35:00,
2013-08-14 21:40:00,52.0,-13.2,30.06,WNW,286,0.0,0.0,5,0.00,,SCT047,0.00,VWS V14.01,2013-08-15 01:40:00,
2013-08-14 21:45:00,51.8,-13.2,30.06,WNW,286,0.0,1.0,5,0.00,,SCT047,0.00,VWS V14.01,2013-08-15 01:45:00,
2013-08-14 21:51:00,51.7,-13.2,30.06,WNW,286,0.0,1.0,3,0.00,,SCT047,0.00,VWS V14.01,2013-08-15 01:51:00,
2013-08-14 21:56:00,51.5,-13.2,30.07,WNW,286,0.0,1.0,3,0.00,,SCT047,0.00,VWS V14.01,2013-08-15 01:56:00,
2013-08-14 22:01:00,51.2,-13.2,30.07,WNW,286,0.0,0.0,3,0.00,,SCT047,0.00,VWS V14.01,2013-08-15 02:01:00,
2013-08-14 22:06:00,51.0,-13.2,30.07,WNW,286,0.0,1.0,2,0.00,,SCT047,0.00,VWS V14.01,2013-08-15 02:06:00,
2013-08-14 22:11:00,50.8,-13.2,30.07,WNW,286,0.0,1.0,2,0.00,,SCT047,0.00,VWS V14.01,2013-08-15 02:11:00,
2013-08-14 22:16:00,50.3,-13.2,30.07,WNW,286,1.0,2.0,2,0.00,,SCT047,0.00,VWS V14.01,2013-08-15 02:16:00,
2013-08-14 22:21:00,49.9,-13.2,30.07,WNW,286,1.0,2.0,1,0.00,,SCT047,0.00,VWS V14.01,2013-08-15 02:21:00,
2013-08-14 22:26:00,49.6,-13.2,30.08,WNW,286,1.0,2.0,1,0.00,,SCT047,0.00,VWS V14.01,2013-08-15 02:26:00,
2013-08-14 22:31:00,49.6,-13.2,30.08,WNW,286,0.0,2.0,1,0.00,,SCT047,0.00,VWS V14.01,2013-08-15 02:31:00,
2013-08-14 22:36:00,49.5,0.0,30.08,WNW,286,3.0,3.0,0,0.00,,CLR,0.00,VWS V14.01,2013-08-15 02:36:00,
2013-08-14 22:41:00,49.7,0.0,30.07,WNW,286,0.0,1.0,0,0.00,,CLR,0.00,VWS V14.01,2013-08-15 02:41:00,
2013-08-14 22:46:00,49.6,0.0,30.07,WNW,286,2.0,2.0,0,0.00,,CLR,0.00,VWS V14.01,2013-08-15 02:46:00,
2013-08-14 22:51:00,49.6,0.0,30.07,WNW,286,2.0,3.0,0,0.00,,CLR,0.00,VWS V14.01,2013-08-15 02:51:00,
2013-08-14 22:56:00,49.8,0.0,30.07,WNW,286,1.0,4.0,0,0.00,,CLR,0.00,VWS V14.01,2013-08-15 02:56:00,
2013-08-14 23:01:00,49.6,0.0,30.07,WNW,286,3.0,3.0,0,0.00,,CLR,0.00,VWS V14.01,2013-08-15 03:01:00,
2013-08-14 23:06:00,50.1,0.0,30.07,WNW,286,1.0,5.0,0,0.00,,CLR,0.00,VWS V14.01,2013-08-15 03:06:00,
2013-08-14 23:11:00,50.3,0.0,30.08,WNW,286,1.0,4.0,0,0.00,,CLR,0.00,VWS V14.01,2013-08-15 03:11:00,
2013-08-14 23:16:00,50.4,0.0,30.08,WNW,286,1.0,4.0,0,0.00,,CLR,0.00,VWS V14.01,2013-08-15 03:16:00,
2013-08-14 23:21:00,50.4,0.0,30.08,WNW,286,2.0,4.0,0,0.00,,CLR,0.00,VWS V14.01,2013-08-15 03:21:00,
2013-08-14 23:26:00,50.4,0.0,30.07,WNW,286,0.0,4.0,0,0.00,,CLR,0.00,VWS V14.01,2013-08-15 03:26:00,
2013-08-14 23:31:00,50.3,0.0,30.07,WNW,286,1.0,2.0,0,0.00,,CLR,0.00,VWS V14.01,2013-08-15 03:31:00,
2013-08-14 23:36:00,50.2,0.0,30.07,WNW,286,0.0,2.0,0,0.00,,CLR,0.00,VWS V14.01,2013-08-15 03:36:00,
2013-08-14 23:41:00,49.9,0.0,30.08,WNW,286,0.0,3.0,0,0.00,,CLR,0.00,VWS V14.01,2013-08-15 03:41:00,
2013-08-14 23:46:00,49.9,0.0,30.08,WNW,286,0.0,3.0,0,0.00,,CLR,0.00,VWS V14.01,2013-08-15 03:46:00,
2013-08-14 23:51:00,49.7,0.0,30.08,WNW,286,0.0,2.0,0,0.00,,CLR,0.00,VWS V14.01,2013-08-15 03:51:00,
2013-08-14 23:56:00,49.5,0.0,30.08,WNW,286,0.0,3.0,0,0.00,,CLR,0.00,VWS V14.01,2013-08-15 03:56:00,